Location: Unspecified
(0.0000°N, 0.0000°E)
Time: 06:36:20
(UTC+00:00)

Altair - Pass Details

Date: 27 November 2019
Orbit: 1502 x 1682 km, 47.2° (Epoch: 10 December)

Event Time Altitude Azimuth Distance (km) Brightness Sun altitude
Rises 21:56:29 0° 229° (SW) 4,847 10.7 -55.6°
Reaches altitude 10° 21:59:43 10° 232° (SW) 3,835 10.0 -56.2°
Enters shadow 22:02:42 22° 238° (WSW) 2,947 9.2 -56.7°
Maximum altitude 22:09:13 59° 309° (NW) 1,771 - -58.0°
Drops below altitude 10° 22:18:22 10° 27° (NNE) 3,690 - -59.6°
Sets 22:21:26 0° 31° (NNE) 4,654 - -60.1°
